Temp
63 63 63 63 62 62 62 62 62 63 63 63 63 63 63 63 63 62 68 80 78 81 83 81 81 81 78 73 72 70 59 57 62 63 66 75 75 78 76 70 74 73 69 71 70
63 63 63 62 62 62 62 61 62 62 63 63 63 63 63 63 60 65 79 82 81 82 81 78 76 77 70 70 70 65 59 63 70 70 69 74 76 74 71 70 68 67 70 70 71
63 63 62 62 62 62 62 61 61 61 62 62 62 63 63 62 64 80 83 82 81 82 82 85 81 78 72 70 70 69 64 70 72 76 76 74 74 79 69 65 67 64 67 69 71
63 62 62 62 62 61 61 61 61 61 61 62 63 63 63 58 69 79 82 81 82 83 83 81 77 73 67 67 72 67 73 72 75 78 76 74 78 73 72 69 74 70 70 70 69
62 62 61 61 61 61 61 60 60 61 61 62 63 63 60 63 76 79 82 81 81 79 80 77 74 72 68 68 71 69 74 76 77 77 75 77 72 71 67 71 73 71 70 70 71
62 61 61 61 61 61 60 60 60 60 61 62 63 64 59 63 78 81 80 79 78 77 78 79 77 77 72 70 69 77 76 76 78 78 77 73 71 73 68 71 69 69 69 70 70
61 61 61 60 60 60 60 59 60 60 61 63 64 66 63 73 81 80 81 75 78 77 75 81 83 77 74 70 78 77 71 73 76 76 74 75 67 65 68 69 66 68 67 69 70
61 61 60 60 59 59 58 58 60 61 62 63 65 59 64 78 79 79 79 77 79 79 79 81 83 77 72 77 76 71 71 63 73 74 76 72 59 65 69 67 64 67 68 69 70
60 60 60 59 59 58 57 58 60 62 64 65 56 56 66 76 75 77 77 77 77 78 78 87 80 71 73 66 62 64 59 63 69 76 75 70 62 66 69 67 64 65 67 69 69
60 60 59 59 58 57 56 59 64 62 64 68 73 61 69 74 75 78 78 81 76 76 75 71 69 64 61 61 54 59 59 63 65 73 72 67 65 65 67 67 65 66 67 68 69
59 59 59 58 57 56 54 57 64 62 60 70 67 71 76 77 82 75 79 76 76 70 62 66 60 58 64 66 66 63 63 65 69 73 69 66 65 64 66 67 65 65 66 67 69
59 58 58 58 56 56 50 65 69 71 65 71 71 73 76 74 73 79 83 74 70 65 66 63 60 71 70 69 65 62 59 61 65 71 69 66 64 66 66 66 67 67 67 69 70
58 58 58 57 56 52 60 70 73 70 61 71 71 72 74 78 75 77 82 76 71 67 67 62 69 74 70 65 63 57 58 60 63 66 67 64 62 62 66 69 70 70 71 71 71
58 58 57 55 58 62 67 70 70 71 59 67 68 77 75 75 70 83 81 79 70 69 67 65 71 70 66 67 66 52 68 69 64 60 55 64 52 58 60 64 68 70 71 71 72
58 57 55 54 56 68 73 68 67 72 50 71 70 80 72 74 72 73 79 78 70 69 66 67 65 67 65 70 68 67 70 67 65 57 53 56 54 58 58 60 64 70 72 74 75
57 56 55 51 49 65 67 67 73 61 52 67 73 71 70 68 71 75 74 78 74 68 64 68 71 69 70 72 72 73 68 62 57 54 50 50 54 55 59 64 66 71 74 76 77
55 54 53 62 72 66 68 72 61 55 69 68 65 67 65 63 67 71 69 63 63 56 56 66 67 68 73 64 68 68 56 50 49 48 48 47 54 58 66 69 72 72 72 76 78
53 52 53 61 60 65 71 68 55 65 64 70 68 66 66 68 63 66 64 63 62 63 56 55 60 68 74 66 63 59 56 51 43 45 49 50 50 62 69 69 71 75 75 77 75
52 52 54 61 61 66 70 58 59 62 70 69 70 65 61 67 67 64 61 62 64 66 61 56 60 73 71 71 68 58 56 56 49 42 49 51 59 68 70 71 72 74 74 75 74
50 58 66 66 65 69 65 55 61 69 70 67 60 64 58 61 62 60 61 66 67 69 63 60 57 63 71 71 70 61 65 57 51 45 42 51 52 57 63 67 69 70 70 71 71
57 68 72 67 68 68 60 59 67 73 74 70 65 62 60 62 61 61 64 69 73 68 67 58 58 64 65 63 58 63 58 51 51 47 46 45 54 62 66 69 69 70 69 68 69
56 65 72 71 66 52 59 63 65 72 71 70 70 66 64 65 62 62 64 66 73 71 64 58 57 53 57 62 63 59 55 53 52 48 43 47 54 69 69 70 70 70 70 68 69
54 55 69 71 60 57 61 66 69 72 69 71 69 69 66 62 59 63 67 74 74 69 64 64 54 49 55 61 63 61 58 50 50 48 47 49 55 68 67 68 70 70 69 67 68
57 59 62 61 55 54 56 61 66 73 69 69 67 68 65 62 61 61 65 72 72 69 69 66 50 53 50 55 57 56 61 57 53 50 49 52 58 64 63 63 66 70 69 68 66
54 51 52 53 56 53 53 59 63 64 68 69 67 67 63 57 58 59 63 65 71 69 64 63 57 51 56 58 59 60 63 62 58 56 56 56 57 61 61 61 62 68 69 69 67
52 50 51 49 50 53 51 53 61 63 63 65 64 68 64 59 64 63 62 58 61 65 59 58 56 51 53 59 58 58 63 62 61 57 55 56 57 62 63 63 63 67 69 68 69
49 51 52 49 50 51 52 56 62 63 66 68 68 65 63 66 68 65 63 64 60 61 61 59 54 51 49 53 57 53 61 62 63 61 61 56 59 63 62 64 62 64 68 68 69
MSLP
1013.61 1013.24 1012.94 1012.73 1012.61 1012.38 1012.21 1012.09 1011.83 1011.39 1010.78 1010.33 1010.79 1010.99 1010.65 1010.38 1010.36 1010.02 1008.58 1006.60 1006.73 1007.05 1007.31 1007.71 1007.64 1007.99 1008.65 1008.91 1009.01 1009.18 1009.30 1009.61 1009.24 1008.85 1008.32 1007.68 1007.69 1007.97 1008.59 1009.32 1010.01 1010.69 1011.18 1011.78 1013.15
1013.51 1013.10 1012.73 1012.50 1012.34 1012.20 1012.02 1011.91 1011.62 1011.22 1010.75 1010.36 1010.65 1010.81 1010.52 1010.30 1010.25 1008.86 1005.07 1006.00 1006.24 1006.57 1007.21 1007.31 1007.35 1008.46 1008.61 1008.85 1008.92 1008.98 1008.97 1008.53 1008.20 1008.06 1007.76 1007.46 1007.46 1008.17 1008.89 1009.41 1010.29 1011.07 1011.62 1012.19 1013.15
1013.36 1012.92 1012.55 1012.31 1012.12 1011.96 1011.79 1011.65 1011.41 1011.04 1010.73 1010.36 1010.49 1010.60 1010.34 1010.28 1009.48 1005.95 1004.22 1005.58 1005.88 1006.32 1006.97 1006.58 1007.39 1008.05 1008.08 1008.17 1008.46 1008.47 1008.32 1008.26 1007.78 1007.12 1007.04 1006.93 1007.19 1007.52 1008.71 1009.67 1009.79 1010.58 1011.75 1012.48 1013.04
1013.22 1012.77 1012.37 1012.08 1011.88 1011.74 1011.64 1011.40 1011.14 1010.83 1010.61 1010.38 1010.33 1010.39 1010.11 1010.09 1008.05 1004.92 1004.82 1005.37 1005.86 1006.23 1006.93 1007.15 1007.24 1007.39 1007.93 1008.02 1007.91 1007.82 1007.48 1007.77 1007.15 1006.94 1006.89 1006.60 1006.73 1007.69 1008.63 1009.34 1009.32 1010.38 1011.18 1012.13 1012.95
1013.01 1012.55 1012.14 1011.87 1011.60 1011.53 1011.38 1011.19 1010.93 1010.58 1010.42 1010.33 1010.20 1010.13 1009.98 1009.15 1006.52 1004.84 1005.14 1005.67 1006.36 1006.70 1007.04 1007.58 1007.55 1007.84 1008.14 1008.32 1007.51 1007.52 1007.28 1007.43 1006.87 1006.42 1006.39 1006.27 1006.85 1007.73 1009.12 1009.50 1009.65 1010.76 1011.85 1012.43 1013.03
1012.82 1012.37 1011.89 1011.63 1011.44 1011.25 1011.13 1010.91 1010.68 1010.35 1010.17 1010.17 1010.11 1009.93 1009.62 1007.94 1005.38 1005.13 1005.39 1006.21 1006.36 1006.80 1006.94 1007.39 1007.59 1007.74 1007.92 1008.15 1008.08 1007.03 1006.57 1006.82 1006.12 1005.77 1005.93 1006.04 1007.00 1007.67 1009.72 1010.22 1010.75 1011.46 1012.04 1012.78 1013.14
1012.69 1012.19 1011.71 1011.42 1011.23 1011.00 1010.91 1010.68 1010.47 1010.18 1009.94 1009.99 1009.96 1009.70 1008.89 1006.28 1005.44 1005.53 1005.67 1006.14 1006.44 1006.56 1007.10 1007.56 1007.91 1007.78 1008.06 1007.95 1007.73 1007.24 1006.98 1006.35 1005.41 1005.34 1006.08 1006.54 1007.48 1008.53 1009.56 1010.39 1011.03 1011.79 1012.44 1012.94 1013.40
1012.52 1011.99 1011.51 1011.25 1011.02 1010.81 1010.66 1010.41 1010.11 1009.90 1009.75 1009.86 1009.79 1009.52 1007.75 1005.68 1005.55 1006.07 1006.37 1006.72 1007.12 1007.54 1007.83 1007.84 1008.01 1008.19 1008.20 1007.68 1007.58 1007.63 1007.48 1006.93 1005.55 1005.22 1006.02 1006.55 1007.84 1009.36 1010.17 1010.59 1011.42 1011.75 1012.43 1012.94 1013.36
1012.23 1011.71 1011.31 1011.05 1010.82 1010.56 1010.37 1010.01 1009.65 1009.61 1009.66 1009.65 1009.65 1009.11 1007.00 1005.89 1006.01 1006.33 1006.37 1006.74 1007.49 1008.19 1008.30 1008.04 1008.49 1008.59 1008.17 1008.10 1008.15 1008.17 1007.91 1007.24 1005.81 1004.98 1006.21 1006.61 1007.97 1009.40 1010.37 1011.03 1011.61 1012.18 1012.31 1012.64 1013.24
1012.03 1011.45 1011.07 1010.87 1010.64 1010.33 1009.97 1009.60 1009.38 1009.54 1009.65 1009.43 1009.00 1008.76 1006.56 1005.24 1005.30 1005.85 1006.53 1006.94 1007.62 1008.28 1008.67 1008.82 1008.71 1008.63 1008.86 1008.72 1008.61 1008.15 1008.07 1007.28 1006.37 1005.02 1006.17 1007.12 1008.32 1009.47 1010.08 1010.96 1011.60 1012.13 1012.46 1012.68 1012.89
1011.84 1011.24 1010.83 1010.64 1010.49 1010.21 1009.83 1009.78 1009.83 1009.52 1008.96 1007.54 1007.08 1006.45 1005.19 1004.42 1004.51 1005.64 1006.08 1007.00 1007.27 1008.19 1008.78 1008.67 1009.15 1008.57 1007.68 1007.70 1007.36 1007.48 1007.38 1006.98 1006.32 1005.92 1006.34 1007.18 1008.39 1009.29 1009.95 1010.65 1011.45 1011.71 1012.18 1012.17 1012.11
1011.61 1010.98 1010.51 1010.29 1010.21 1010.06 1010.10 1008.89 1007.33 1007.01 1007.17 1006.28 1006.21 1005.77 1004.88 1004.38 1004.44 1005.14 1005.74 1006.92 1007.38 1007.97 1008.00 1008.33 1007.86 1006.78 1006.84 1006.68 1006.71 1006.88 1007.07 1006.86 1006.63 1006.62 1006.97 1007.10 1007.96 1008.66 1009.38 1009.55 1010.15 1010.89 1011.40 1011.61 1012.10
1011.30 1010.71 1010.16 1009.87 1009.78 1009.89 1009.10 1007.41 1006.36 1006.38 1006.83 1005.51 1005.20 1004.75 1003.97 1004.11 1004.11 1004.34 1004.83 1005.41 1006.16 1007.05 1007.28 1007.41 1006.13 1005.77 1005.95 1005.79 1006.09 1006.11 1006.52 1006.68 1006.66 1007.20 1007.29 1007.67 1007.77 1008.37 1008.81 1009.04 1009.65 1010.03 1010.29 1010.63 1010.86
1011.06 1010.40 1009.83 1009.37 1009.81 1008.75 1007.78 1006.26 1006.28 1006.40 1006.44 1005.31 1004.41 1003.36 1003.58 1003.50 1003.70 1003.44 1003.80 1004.39 1005.29 1005.91 1006.54 1006.51 1005.40 1005.30 1005.28 1005.08 1005.10 1005.53 1005.14 1006.02 1006.84 1007.62 1008.18 1008.27 1008.77 1007.84 1008.06 1008.36 1008.68 1008.87 1009.09 1009.40 1009.75
1010.74 1010.10 1009.71 1009.46 1009.18 1008.01 1006.52 1006.25 1005.96 1006.25 1006.05 1004.59 1003.45 1002.66 1003.10 1003.38 1003.41 1003.48 1003.49 1003.76 1004.67 1005.37 1006.00 1005.43 1004.94 1004.69 1004.47 1004.15 1004.41 1004.81 1005.11 1006.25 1007.29 1008.25 1008.81 1009.20 1009.32 1007.86 1007.77 1007.97 1007.53 1007.59 1007.65 1007.97 1008.23
1010.37 1009.84 1009.49 1009.39 1009.15 1006.55 1005.92 1005.87 1005.97 1006.34 1005.16 1003.72 1002.81 1002.69 1003.18 1003.29 1003.20 1003.48 1003.57 1003.76 1004.44 1005.10 1005.51 1005.10 1004.38 1003.89 1003.49 1003.29 1003.60 1004.46 1005.67 1007.14 1008.34 1009.26 1009.65 1009.57 1009.49 1007.69 1007.25 1006.88 1006.39 1006.44 1006.63 1006.86 1007.02
1009.54 1009.13 1009.21 1008.26 1007.29 1006.09 1005.80 1005.85 1006.46 1006.01 1004.88 1003.68 1003.02 1002.92 1003.11 1003.50 1003.48 1003.52 1003.94 1004.41 1005.18 1005.65 1006.09 1005.13 1004.11 1003.52 1003.10 1003.19 1003.53 1004.40 1006.23 1008.02 1009.62 1010.60 1010.49 1009.51 1009.41 1007.18 1006.27 1005.57 1005.29 1005.50 1005.63 1005.68 1005.64
1008.68 1008.07 1008.05 1007.53 1006.44 1006.22 1006.03 1006.49 1006.55 1005.83 1004.73 1003.51 1003.11 1003.13 1003.28 1003.61 1003.75 1003.95 1004.37 1004.94 1005.17 1005.79 1006.50 1005.95 1004.41 1003.52 1002.94 1003.11 1003.63 1004.87 1006.36 1007.90 1009.60 1010.76 1010.51 1009.73 1008.75 1006.74 1005.78 1005.30 1004.78 1004.77 1005.16 1005.40 1005.65
1008.06 1007.83 1007.73 1006.46 1006.28 1006.68 1006.71 1007.20 1006.56 1005.67 1004.56 1003.87 1003.30 1003.25 1003.50 1003.39 1003.60 1004.00 1004.51 1004.95 1004.90 1005.24 1005.97 1005.88 1005.01 1003.75 1003.40 1003.39 1003.81 1005.21 1006.59 1007.75 1009.50 1010.84 1010.60 1009.96 1008.34 1006.45 1006.02 1005.43 1005.34 1005.20 1005.29 1005.46 1005.13
1008.81 1008.02 1007.01 1006.10 1006.19 1006.65 1007.15 1007.31 1006.36 1005.09 1004.16 1003.77 1003.69 1003.52 1003.64 1003.66 1003.91 1004.15 1004.39 1004.27 1004.49 1004.84 1004.96 1005.80 1005.76 1004.74 1004.07 1003.95 1004.43 1004.92 1006.54 1008.03 1009.53 1011.02 1011.15 1010.01 1008.65 1007.35 1006.54 1006.20 1006.14 1006.18 1006.30 1006.13 1005.68
1008.70 1008.13 1007.14 1006.33 1006.44 1007.05 1008.02 1007.29 1005.91 1004.40 1003.94 1003.46 1003.39 1003.52 1003.66 1003.67 1003.89 1004.13 1004.22 1004.00 1004.06 1004.73 1005.10 1006.01 1006.50 1005.90 1005.23 1005.58 1005.92 1006.17 1007.13 1008.95 1010.33 1011.13 1011.28 1010.48 1008.69 1006.64 1006.40 1006.19 1006.30 1006.52 1006.48 1006.29 1006.27
1009.69 1008.85 1006.93 1006.45 1007.32 1008.53 1008.16 1007.08 1005.85 1004.54 1003.78 1003.29 1003.17 1003.27 1003.51 1003.84 1004.13 1004.09 1003.91 1003.94 1003.74 1004.24 1005.50 1006.44 1007.13 1007.36 1006.87 1006.42 1006.55 1006.60 1007.57 1008.75 1010.46 1011.47 1011.46 1010.52 1008.19 1006.47 1006.27 1006.34 1006.60 1006.72 1006.18 1006.59 1006.57
1011.57 1010.18 1007.36 1007.01 1008.49 1009.15 1008.24 1007.20 1006.20 1005.10 1004.36 1003.71 1003.52 1003.44 1003.62 1004.18 1004.51 1004.16 1004.01 1003.88 1003.99 1004.57 1005.44 1006.24 1007.74 1008.48 1007.86 1007.45 1007.00 1007.26 1007.77 1008.77 1009.73 1010.38 1010.87 1010.47 1008.34 1006.93 1006.64 1006.76 1006.75 1006.68 1006.86 1007.26 1007.30
1012.34 1011.52 1009.74 1009.19 1010.12 1009.83 1009.51 1008.32 1006.92 1005.66 1005.06 1004.60 1004.05 1003.79 1004.04 1004.64 1004.82 1004.73 1004.40 1004.29 1004.35 1004.92 1005.60 1006.27 1008.50 1008.82 1008.65 1008.23 1007.98 1007.79 1007.89 1008.31 1009.20 1010.15 1010.49 1009.78 1008.40 1007.26 1007.43 1007.40 1007.23 1006.97 1007.20 1007.70 1007.97
1013.33 1013.93 1013.34 1012.13 1011.46 1011.04 1010.24 1009.23 1008.17 1007.05 1005.84 1005.28 1004.81 1004.79 1004.61 1005.16 1005.29 1005.18 1004.97 1004.82 1004.92 1005.42 1006.14 1007.07 1008.50 1008.89 1008.56 1008.20 1007.94 1007.77 1007.75 1007.99 1008.49 1008.73 1009.32 1008.93 1008.81 1008.10 1008.26 1008.15 1007.85 1007.51 1007.67 1008.06 1008.13
1015.09 1015.12 1014.04 1013.33 1012.51 1011.59 1010.78 1010.03 1009.19 1008.27 1007.46 1006.54 1006.23 1005.65 1005.26 1005.43 1005.29 1005.36 1005.34 1005.35 1005.38 1005.88 1006.73 1007.93 1008.90 1009.29 1008.95 1008.32 1008.04 1007.71 1007.20 1007.30 1007.46 1007.92 1008.51 1008.62 1008.64 1008.39 1008.49 1008.32 1008.05 1007.65 1007.95 1008.21 1008.15
1016.10 1015.64 1015.15 1014.28 1013.32 1012.45 1011.56 1010.76 1009.94 1009.32 1007.89 1007.29 1007.17 1006.61 1006.14 1006.37 1005.94 1005.46 1005.51 1005.60 1005.77 1006.38 1007.51 1008.41 1009.26 1010.26 1009.85 1008.90 1008.19 1007.81 1006.74 1006.61 1006.69 1007.24 1007.84 1008.45 1008.24 1008.66 1008.95 1008.86 1008.73 1008.48 1008.31 1008.52 1008.62
Wind_Speed
16 16 15 13 12 11 11 9 8 9 12 14 10 8 8 8 5 1 6 5 10 20 11 7 7 5 4 1 1 2 3 4 3 2 5 6 6 3 6 8 3 4 4 12 14
16 16 15 14 12 11 10 9 9 10 12 14 11 8 8 7 2 7 13 9 22 20 11 11 8 7 2 3 2 2 3 1 5 6 4 4 5 6 4 7 4 8 15 20 16
17 16 15 14 13 11 10 9 9 10 11 13 11 8 8 5 3 7 7 19 23 15 7 4 4 5 2 1 2 1 0 1 5 5 2 2 6 6 9 5 6 13 19 21 19
18 16 15 14 13 12 10 9 9 10 11 12 10 8 9 2 6 2 9 18 22 8 6 3 3 4 5 5 1 4 4 3 1 2 2 2 6 4 3 4 4 18 22 21 19
19 18 16 15 13 12 10 9 10 11 12 11 9 8 1 0 9 2 15 16 13 4 6 5 1 2 4 1 7 2 3 2 2 3 5 7 5 6 5 5 14 18 19 20 16
19 18 16 15 14 12 10 10 11 12 12 10 8 8 1 3 1 10 12 13 7 5 4 7 1 4 0 1 1 8 7 4 6 6 2 6 5 6 4 10 15 17 18 15 15
19 18 17 15 13 12 11 11 12 12 11 8 6 3 1 10 2 7 12 4 4 5 2 2 5 6 4 3 6 5 6 7 5 2 2 0 2 3 12 13 16 16 12 13 10
18 19 17 15 13 12 12 12 11 10 9 6 4 2 7 3 6 9 3 4 1 3 5 5 3 4 2 4 3 1 2 5 7 2 1 5 5 5 9 13 12 15 12 12 12
20 19 17 15 13 13 14 14 10 5 3 3 2 1 7 2 5 5 3 5 4 5 5 10 4 5 3 1 4 4 3 4 8 4 2 2 2 6 9 8 10 10 12 13 11
20 19 17 14 13 13 17 3 8 4 2 3 3 2 1 5 5 7 4 6 5 6 4 2 2 4 3 3 5 5 4 6 6 6 3 4 1 9 11 9 9 9 10 10 12
22 19 16 13 11 11 6 4 3 2 1 8 3 2 4 1 6 3 6 4 4 4 5 5 3 7 12 9 5 3 5 7 4 2 1 3 2 9 11 9 8 9 10 12 14
21 20 17 14 10 8 1 2 3 3 6 5 4 6 6 2 2 6 13 7 7 6 2 2 7 12 4 7 6 5 2 5 2 3 1 7 2 8 14 11 13 13 12 14 11
21 19 18 15 10 1 3 6 2 3 3 6 5 4 4 7 5 7 11 7 5 7 6 6 10 3 4 5 4 3 5 5 4 2 1 3 7 5 9 6 10 11 14 14 16
21 19 16 16 3 2 4 2 1 4 6 5 3 5 3 3 1 4 6 6 1 8 6 6 5 3 4 5 6 2 8 5 9 5 3 3 6 5 4 11 15 16 15 16 17
22 19 15 6 2 1 2 3 4 4 5 1 3 2 1 6 2 1 2 4 7 4 5 9 2 5 4 5 4 8 6 8 4 5 4 1 3 6 4 7 12 14 19 18 18
22 18 11 2 1 7 6 3 3 7 3 3 3 4 4 2 2 3 2 5 1 2 2 8 4 3 7 2 5 6 6 8 6 3 4 2 4 7 1 5 2 9 13 17 19
25 18 5 1 3 4 4 4 7 6 6 4 3 2 3 3 1 2 5 2 3 3 5 8 4 3 4 1 3 7 7 3 5 3 6 4 5 10 9 4 4 8 11 15 18
29 10 8 4 5 5 4 7 7 2 5 5 3 2 3 6 1 2 3 1 2 5 0 2 9 4 5 3 4 4 6 6 2 2 2 3 3 6 6 5 2 2 3 6 8
21 1 1 4 8 4 7 5 5 5 4 5 6 5 5 4 3 3 3 5 5 7 7 2 5 6 1 3 2 1 5 4 8 3 3 3 6 5 6 9 6 6 7 7 7
3 3 3 2 6 5 6 4 4 5 2 2 1 0 2 2 3 4 5 3 2 7 3 4 2 2 6 3 5 1 5 5 5 1 1 5 4 5 3 3 1 5 7 7 7
3 5 6 3 1 6 3 5 6 7 6 5 4 0 1 2 3 2 5 3 4 3 3 4 3 7 3 5 3 5 4 7 6 4 5 1 7 7 6 6 5 5 3 3 5
3 4 3 2 4 1 2 3 4 4 2 3 3 2 2 1 3 2 1 2 0 6 4 2 5 1 1 2 2 2 3 4 6 2 2 3 8 3 5 1 4 6 5 3 4
3 3 4 4 3 3 6 4 3 6 4 3 2 1 1 3 2 1 2 4 5 2 4 5 3 4 8 8 6 6 3 5 5 3 3 5 7 0 3 5 3 3 4 4 6
3 4 6 6 1 3 5 4 7 6 2 4 2 2 3 5 4 1 1 2 2 4 7 9 4 7 7 7 4 2 3 3 5 4 4 6 5 4 7 7 8 6 3 2 5
5 0 3 4 4 3 2 4 4 7 5 5 2 5 1 4 1 0 1 2 4 1 4 5 4 4 5 4 2 3 5 4 6 5 7 5 8 5 6 7 8 7 5 4 3
3 4 5 1 3 3 3 2 3 6 2 6 5 8 2 4 7 9 4 1 3 3 3 2 2 3 2 1 2 4 7 7 6 4 2 4 4 2 5 2 4 3 6 4 3
3 2 3 3 4 1 2 2 2 5 4 1 5 4 2 5 5 3 3 2 2 4 3 3 7 4 5 3 5 4 6 4 4 4 7 6 6 2 2 6 6 6 5 4 6
Wind_Direction
338 334 331 329 327 324 322 321 314 301 294 298 320 328 317 311 333 93 239 176 155 150 152 170 225 171 223 337 124 54 70 148 157 67 285 323 168 68 73 124 166 127 142 136 137
339 334 330 329 326 324 321 318 310 298 294 297 311 323 317 318 196 236 244 136 145 149 151 178 188 165 234 181 193 53 34 179 157 175 220 284 206 136 116 133 90 84 104 127 139
340 335 330 327 325 323 319 314 305 297 294 294 306 320 310 319 297 243 197 140 152 168 141 211 93 203 172 67 64 327 78 123 227 188 218 215 142 148 130 215 192 161 148 147 147
341 337 330 326 322 320 315 309 303 294 290 289 305 318 309 152 182 253 153 139 156 161 121 94 334 14 27 345 51 334 173 221 253 110 284 197 153 101 110 312 224 153 157 152 153
343 338 331 326 321 318 313 307 300 294 289 294 308 317 273 185 255 235 131 131 152 167 161 132 66 49 329 317 315 208 76 154 236 293 113 101 84 123 55 45 115 133 148 156 155
342 337 331 328 323 319 311 307 301 296 292 297 307 315 206 229 16 149 128 137 166 179 165 142 146 204 122 327 236 313 326 332 279 293 268 137 120 115 107 119 120 139 147 157 163
342 338 334 331 326 319 311 307 302 294 290 292 294 275 74 232 81 155 147 172 180 179 91 68 29 17 331 320 240 293 333 345 279 199 273 140 100 92 137 134 137 150 146 161 166
344 341 338 334 328 320 309 307 298 288 283 277 262 270 240 355 112 129 114 33 155 276 340 322 204 337 261 291 359 247 347 337 284 33 159 95 272 130 146 139 147 153 160 172 174
341 339 339 336 331 321 311 306 286 260 240 163 123 100 278 107 133 150 138 162 119 38 343 297 358 216 291 247 358 349 293 247 300 234 49 117 353 143 151 149 154 166 172 181 189
343 341 337 336 332 326 320 265 120 129 210 210 255 27 273 236 158 150 161 110 139 129 355 173 270 290 36 110 233 214 205 264 256 282 173 273 160 156 160 170 173 170 183 200 200
341 340 338 337 331 330 345 98 36 26 301 196 190 254 300 267 124 159 156 113 48 116 168 196 127 222 237 209 237 208 212 238 239 328 28 201 53 175 172 176 179 176 196 209 220
336 339 337 332 326 321 277 161 195 177 320 228 248 278 249 244 100 111 130 154 140 203 219 359 239 242 204 241 232 222 192 250 337 102 207 350 217 171 178 201 186 185 199 217 216
332 333 330 329 322 227 209 229 85 81 140 296 196 206 218 143 188 202 146 162 165 181 193 178 242 317 312 280 172 215 170 208 205 73 13 34 306 165 198 196 188 194 207 213 214
333 330 328 326 301 187 248 248 114 162 66 288 288 272 130 131 245 192 177 141 184 210 191 234 274 232 288 257 135 297 189 159 140 119 213 64 273 315 189 192 198 207 204 206 215
332 328 325 335 282 199 163 322 123 70 67 234 222 124 118 145 142 289 217 71 192 194 114 257 242 234 246 231 157 227 121 151 157 87 87 300 44 268 120 212 213 206 211 209 212
330 324 324 138 229 249 306 345 62 43 32 331 185 166 117 3 352 108 104 54 114 163 318 250 262 237 208 272 195 116 83 47 53 64 4 356 137 296 154 263 172 209 213 207 210
328 316 254 273 225 318 308 54 36 88 352 304 240 143 140 196 283 140 159 158 164 16 360 333 281 277 206 273 359 64 62 3 34 33 220 302 101 255 297 275 220 174 205 214 215
327 319 192 232 307 328 49 48 60 337 266 308 351 96 175 153 217 127 73 278 183 103 346 35 349 11 345 225 188 62 137 145 182 164 271 350 267 278 316 308 157 121 164 185 221
321 307 184 260 215 345 70 56 200 200 252 319 336 47 329 332 132 133 170 206 218 167 168 123 283 311 238 330 60 152 44 167 103 19 74 274 291 322 342 29 38 25 0 316 296
352 356 327 49 148 81 75 225 235 216 206 186 118 340 26 356 101 124 194 197 225 185 189 185 341 324 295 41 27 112 151 40 13 105 77 312 284 235 282 170 282 264 255 295 322
22 54 322 34 35 52 136 235 269 242 210 165 169 195 346 56 96 160 190 235 203 102 99 116 138 290 17 28 321 14 40 52 109 101 145 121 274 219 210 216 231 267 255 13 3
2 63 288 38 52 42 172 205 296 298 279 276 111 128 176 117 82 159 141 244 265 143 143 182 129 191 215 358 289 4 109 107 112 225 82 131 279 262 250 324 7 305 20 356 50
30 274 319 73 105 334 314 308 275 334 329 351 297 338 114 67 88 40 37 14 5 99 150 184 34 21 353 359 354 48 16 111 104 83 186 126 264 315 35 50 344 231 296 327 69
35 13 333 42 35 89 9 343 323 328 279 358 297 104 95 40 33 226 342 351 22 92 84 84 108 148 176 203 182 29 9 91 106 104 181 221 282 302 354 330 310 272 176 76 77
25 343 175 336 347 13 358 352 329 346 358 1 26 29 176 138 53 295 292 328 51 88 68 103 148 176 231 223 189 216 226 193 199 194 158 258 208 277 299 296 285 269 135 108 57
54 25 354 279 300 324 353 12 4 320 292 335 41 320 357 164 181 205 168 225 197 9 76 19 187 165 270 179 218 260 253 235 225 128 265 166 246 288 320 23 18 45 127 144 135
330 345 96 306 341 36 225 323 329 355 282 296 337 331 31 4 290 272 182 151 187 173 156 128 133 104 249 354 6 335 246 219 197 172 154 173 209 62 30 49 20 40 100 114 57